Theta_e
272 272 272 272 271 271 271 271 271 271 271 271 271 271 271 271 271 271 271 271 271 271 271 272 272 272 272 272 272 272 272 272 272 272 272 273 273 273 272 272 273 273 274 274 274 274 275 275 275 275 275 275 275 275 275 275 276 276 276 276 276 277 277 277 277 277 277 276 276 276 276 276 276 276 276 277 277 276 277 277 278 278 279 279 279
272 272 272 271 271 271 271 271 270 270 270 270 270 271 271 271 271 270 271 271 271 271 271 271 271 271 272 272 272 272 272 272 272 271 271 271 271 271 271 271 271 271 272 272 273 273 273 274 274 274 274 274 274 274 274 275 275 276 276 276 276 276 277 277 276 276 276 276 276 276 276 276 276 275 276 276 276 276 276 277 277 278 278 279 279
271 271 271 271 270 270 270 270 270 270 270 270 270 270 270 270 270 270 270 270 270 270 270 270 270 271 271 271 271 271 271 271 270 270 270 270 270 270 269 269 270 270 270 271 271 272 272 272 273 273 274 274 274 274 274 274 275 275 276 276 276 276 276 276 276 276 276 276 276 275 275 275 275 275 275 276 276 276 276 276 277 278 278 279 279
271 270 270 270 270 269 269 269 269 269 269 269 269 269 269 269 269 269 269 269 269 270 270 270 270 270 270 270 270 270 270 269 269 269 268 268 268 268 268 268 268 269 269 270 271 271 272 272 272 272 273 273 273 273 273 274 275 275 275 276 276 276 276 276 276 276 276 276 275 275 275 275 275 275 275 275 275 275 276 276 276 277 278 278 278
270 270 270 269 269 269 269 269 269 269 269 269 269 269 269 269 269 269 269 269 269 269 269 269 269 269 269 269 269 269 268 268 268 267 267 267 267 267 268 268 268 268 269 269 270 271 271 272 272 272 272 272 272 273 273 274 274 275 275 276 276 276 276 276 276 276 276 275 275 275 275 275 275 274 274 274 275 275 275 275 276 277 277 278 278
269 269 269 269 268 268 268 268 268 268 268 268 268 268 268 268 268 268 268 268 268 268 269 269 269 269 268 268 268 268 268 267 267 267 267 267 267 267 268 268 268 268 269 269 270 270 271 272 272 273 273 273 272 273 273 274 274 275 275 275 276 276 276 276 275 275 275 275 275 275 274 274 274 274 274 274 274 274 275 275 275 276 277 278 278
269 269 268 268 267 267 267 267 267 267 267 267 267 267 267 267 268 268 268 268 268 268 268 268 268 268 268 268 267 267 267 266 266 266 266 266 266 267 268 268 268 269 269 270 270 271 271 272 272 272 272 273 272 272 273 274 274 275 275 275 275 275 275 275 275 275 275 275 274 274 274 274 274 274 274 274 274 274 274 274 275 276 277 277 277
268 268 268 267 267 267 267 267 267 267 267 267 267 267 267 267 267 267 267 267 267 267 267 267 267 267 267 267 267 266 266 266 266 265 266 266 266 267 267 268 268 269 269 270 270 270 271 272 272 272 272 272 272 272 272 273 274 275 275 275 275 275 275 275 275 275 274 274 274 274 274 274 274 273 273 273 273 274 274 274 275 276 277 277 277
267 267 267 267 266 266 266 266 266 266 266 266 266 266 266 266 266 267 267 266 266 266 267 267 267 267 267 266 266 266 265 265 265 265 265 266 266 266 267 267 268 269 269 269 270 270 271 272 273 273 273 272 272 272 272 273 274 274 275 275 275 275 275 275 275 274 274 274 274 273 273 273 273 273 273 273 273 273 274 274 275 275 276 276 276
267 267 266 266 266 266 266 266 266 266 266 266 266 266 266 266 266 266 266 266 266 266 266 266 266 266 266 266 266 266 266 266 265 265 265 265 266 266 267 268 268 269 269 269 270 270 271 272 272 272 272 273 273 273 273 273 274 274 274 275 275 275 275 274 274 274 274 274 273 273 273 273 273 273 273 273 273 273 273 274 274 275 275 276 276
266 266 266 266 266 266 266 266 266 266 266 266 266 266 266 266 266 266 266 266 266 266 266 266 266 266 266 266 266 266 266 266 266 265 265 265 266 267 267 268 268 269 269 270 270 271 272 272 272 272 272 272 273 273 273 273 274 274 274 274 274 274 274 274 274 274 274 273 273 273 273 273 273 273 273 273 273 273 273 273 274 274 275 275 276
266 266 266 266 265 265 265 265 265 265 265 265 265 265 266 266 266 266 266 266 266 266 266 266 266 266 266 266 266 265 265 265 266 266 265 266 267 267 268 268 268 269 269 270 270 271 271 272 272 272 272 273 273 274 273 273 274 274 274 274 274 274 274 274 274 274 273 273 273 273 272 272 272 272 273 273 273 273 273 273 274 274 274 275 275
266 266 265 265 265 265 265 265 265 265 265 265 265 265 265 266 265 265 266 266 266 266 266 266 266 266 265 265 265 265 265 266 266 266 265 266 267 268 268 268 268 269 269 269 270 270 271 271 272 272 273 273 273 274 274 273 273 274 274 274 274 274 274 274 274 274 273 273 273 273 273 273 273 273 273 273 273 273 273 273 274 274 274 274 275
265 265 265 265 265 265 265 265 265 265 265 265 265 265 265 265 265 265 265 265 265 265 265 265 266 265 265 265 265 265 265 266 266 266 265 266 267 268 268 268 268 268 269 269 269 270 271 271 272 272 273 273 273 274 274 273 273 273 274 274 274 274 274 274 274 274 274 274 273 273 273 273 273 273 274 273 273 273 273 273 274 274 274 274 274
265 265 265 265 264 264 264 264 264 265 265 265 265 265 265 265 265 265 264 265 265 265 265 265 265 265 265 264 265 265 265 266 266 266 267 267 267 268 268 268 268 268 268 268 269 269 270 271 272 272 273 273 273 274 274 274 273 273 273 273 273 273 274 274 274 274 274 274 274 273 273 273 273 273 274 274 274 273 273 273 274 274 274 274 274
265 265 265 264 264 264 264 264 264 264 264 264 264 264 264 264 264 264 264 264 264 264 265 264 264 264 265 264 264 265 266 266 267 267 268 268 268 268 267 267 267 267 267 268 268 269 270 271 272 272 273 273 273 273 274 274 273 273 273 273 273 273 273 273 273 274 274 274 274 273 273 273 273 273 274 274 274 274 273 273 273 273 273 274 274
265 264 264 264 264 264 263 263 264 264 264 264 264 264 264 264 264 264 264 264 264 264 264 264 264 264 264 264 264 265 266 267 267 267 268 268 268 268 268 267 267 267 267 268 268 269 269 270 271 272 273 273 273 273 273 274 273 273 273 273 273 273 273 273 273 273 273 273 274 273 273 273 273 274 274 274 274 274 273 273 273 273 273 274 274
264 264 264 264 263 263 263 263 263 263 263 263 263 263 263 264 264 264 263 264 264 264 264 263 263 263 264 264 264 265 266 266 267 267 268 269 269 269 268 268 268 268 268 268 268 268 269 270 271 272 272 272 273 273 273 273 273 273 273 273 273 273 273 273 272 272 272 272 273 273 273 273 274 274 275 275 275 274 274 274 274 274 274 274 274
264 264 263 263 263 263 263 263 263 263 263 263 263 263 263 263 263 263 263 263 263 263 263 263 263 263 264 264 265 265 265 266 267 268 268 269 269 269 269 269 268 268 268 268 268 268 269 269 270 271 272 272 272 272 273 273 273 273 273 273 273 273 273 273 272 272 272 272 272 272 273 273 274 274 275 275 275 275 274 275 275 274 274 275 275
263 263 263 263 263 263 263 263 263 263 263 263 263 263 263 263 263 263 263 263 263 263 263 263 263 264 264 264 265 265 265 266 267 268 268 269 269 270 269 269 269 269 268 268 268 268 268 269 269 270 271 272 272 272 273 273 273 273 273 273 273 273 273 273 272 272 272 271 271 271 272 272 273 274 274 275 275 275 275 275 275 274 275 275 275
263 263 263 263 263 263 263 263 263 262 262 262 262 263 263 263 263 263 263 263 263 263 263 263 263 263 264 264 265 265 265 266 266 267 268 269 270 270 270 270 269 269 269 269 269 269 269 269 269 270 270 271 272 272 273 273 273 273 273 273 273 273 273 272 272 272 272 271 271 271 271 272 273 274 274 275 275 275 275 275 275 275 275 275 275
263 263 263 263 263 263 263 263 262 262 262 262 262 262 262 262 262 262 262 263 263 263 263 263 263 263 264 264 264 265 265 266 266 266 267 268 270 271 271 271 270 270 269 269 269 269 269 269 269 269 270 270 271 272 272 273 273 273 273 273 273 273 273 273 272 272 272 271 271 271 271 272 273 274 274 275 275 275 275 275 275 275 275 275 276
263 263 262 263 263 263 262 262 262 262 262 262 262 262 262 262 262 262 262 262 262 263 263 263 262 262 263 263 264 264 265 265 265 266 266 268 269 271 271 271 271 271 270 270 270 269 269 269 269 269 269 270 271 271 272 272 273 273 274 273 274 274 273 273 273 272 272 272 271 271 271 271 272 273 274 274 275 275 275 275 275 275 275 276 276
262 262 262 262 262 262 262 262 262 262 262 262 262 262 262 262 262 262 262 262 262 262 262 262 261 261 262 262 263 264 264 264 265 266 266 267 269 270 271 271 271 271 271 271 270 270 269 269 269 269 270 270 271 271 271 272 272 273 273 273 274 274 274 273 273 273 273 272 272 272 271 272 272 273 274 274 274 275 275 275 275 275 276 276 276
262 262 262 262 262 262 262 262 262 262 262 262 261 261 261 261 262 262 261 261 261 261 261 261 260 261 261 261 262 263 263 264 265 265 266 267 268 269 270 271 271 272 271 271 271 271 271 270 270 270 271 271 271 271 272 272 272 273 273 273 274 274 274 274 274 273 273 273 273 272 272 272 273 273 274 274 274 274 275 275 275 275 275 276 276
262 262 262 262 262 262 262 262 262 262 262 261 261 261 261 261 261 261 261 261 260 260 260 260 260 260 260 260 261 262 263 264 265 265 266 267 268 269 270 270 271 271 272 272 272 272 271 271 271 271 271 271 271 272 272 272 272 272 273 273 273 273 274 274 274 274 274 274 274 273 273 273 273 273 273 274 274 275 275 275 275 275 275 276 275
262 262 262 262 262 262 262 262 262 261 261 261 261 261 261 261 261 261 260 260 260 259 259 259 259 259 260 260 261 262 263 264 264 265 266 267 268 269 269 270 270 272 272 272 272 272 271 271 271 271 271 271 272 272 272 272 272 272 272 272 273 273 273 273 273 274 274 274 274 274 273 273 273 273 273 274 275 275 275 275 275 275 276 276 276
261 261 261 261 261 261 261 261 261 261 261 261 261 261 261 261 261 261 259 258 259 259 259 258 259 259 259 260 260 261 263 263 264 265 265 266 268 269 269 269 270 271 273 272 272 271 271 270 270 270 270 271 271 272 272 272 272 272 272 272 272 272 273 273 273 273 273 273 274 274 274 274 274 274 274 275 275 275 275 275 276 276 276 276 276
261 261 261 261 261 261 261 261 261 261 261 261 261 261 261 260 260 260 260 259 259 259 259 259 259 259 259 260 260 260 261 263 264 265 266 267 267 268 268 269 269 271 272 271 271 271 270 270 270 270 270 271 271 272 272 272 272 272 272 272 272 272 272 273 273 273 273 273 274 274 274 274 274 274 275 275 275 275 276 276 276 276 276 276 276
261 261 261 261 261 261 261 261 261 261 261 261 261 261 261 261 260 260 260 260 260 261 260 260 260 260 259 260 261 261 261 262 264 265 266 266 267 267 268 268 269 270 271 271 270 270 270 270 270 271 271 271 272 272 272 272 272 272 272 272 272 272 272 273 273 273 273 274 274 274 274 275 275 275 275 275 275 276 276 276 276 276 276 276 276
261 261 261 261 260 260 260 260 260 260 260 260 260 260 261 261 261 261 260 260 260 261 261 261 261 261 260 261 261 262 262 263 264 265 265 266 266 266 267 268 268 269 270 270 270 270 270 270 270 271 271 271 271 272 272 272 272 272 272 272 272 272 272 273 273 273 274 274 274 275 275 275 275 275 275 276 276 276 276 276 276 276 276 276 276
260 261 260 260 260 260 260 260 260 260 260 260 260 260 260 260 261 261 261 261 260 261 261 261 261 261 261 261 261 262 262 262 263 264 265 265 265 265 266 267 267 268 269 270 270 270 270 270 270 270 270 271 271 271 271 272 272 272 272 272 272 272 273 273 274 274 274 274 274 275 275 275 276 275 276 276 276 276 276 276 276 276 276 276 276
260 260 260 260 260 260 260 260 260 260 260 260 260 259 259 259 259 260 261 261 261 261 261 260 260 260 261 261 261 261 262 262 262 263 263 263 263 264 265 266 266 267 269 270 270 269 269 269 269 270 270 270 270 271 271 271 271 271 272 272 272 272 273 273 274 274 274 274 274 275 275 276 276 276 276 276 276 276 276 276 276 276 276 276 276
260 260 260 260 260 259 260 260 260 260 260 259 259 259 259 259 258 259 259 260 261 261 261 261 260 260 260 260 260 261 261 261 261 261 261 262 262 263 264 265 266 267 268 269 269 269 269 269 269 269 269 270 270 270 270 271 271 271 271 272 272 272 272 273 273 274 274 274 274 275 275 275 276 276 276 276 276 276 276 276 276 276 276 276 276
260 260 260 260 259 259 259 260 260 260 259 259 259 259 258 258 258 258 258 258 259 260 260 260 260 260 260 259 259 260 260 259 259 260 260 260 261 262 264 265 265 266 266 267 267 267 267 267 267 268 268 269 269 270 270 270 270 270 271 271 271 271 272 272 272 273 273 273 274 274 274 275 275 275 276 276 276 276 275 275 275 276 276 276 276
260 260 260 260 259 259 259 259 259 259 259 259 259 258 258 258 258 258 258 258 258 258 259 259 260 260 259 259 259 259 259 259 259 259 259 259 260 261 262 262 262 263 264 264 264 265 265 265 266 266 267 267 268 269 269 269 270 270 270 270 271 271 271 271 272 272 272 273 273 273 273 274 274 275 275 275 275 275 275 275 275 275 275 275 275
260 260 260 260 259 259 259 259 259 259 259 259 259 258 258 258 258 258 258 258 258 258 258 259 259 259 260 259 259 259 259 259 258 258 259 259 259 260 260 260 260 261 261 262 262 263 263 264 264 265 265 266 266 267 268 268 269 269 270 270 270 270 271 271 271 271 272 272 272 272 273 273 274 274 274 274 274 274 274 275 275 275 274 274 274
260 260 260 259 259 259 259 259 259 259 259 259 259 258 258 258 258 258 258 258 258 258 258 258 258 258 259 259 259 259 259 259 258 259 259 259 259 259 259 259 259 259 260 260 261 261 262 262 263 263 264 264 265 265 266 267 267 268 268 269 269 270 270 270 271 271 271 271 271 272 272 272 273 273 274 274 274 274 274 274 274 274 274 274 274
260 260 260 259 259 259 259 259 259 259 259 259 259 258 258 258 258 258 258 258 258 258 258 258 258 258 258 258 258 258 258 258 258 258 258 258 258 258 258 258 258 259 259 259 260 260 261 261 261 262 262 263 263 264 265 265 266 267 267 268 268 269 269 270 270 270 271 271 271 271 271 271 272 272 273 273 273 273 273 273 273 273 273 273 273
260 260 260 259 259 259 259 259 259 259 258 258 258 258 258 258 258 257 257 257 257 258 258 258 258 257 257 257 257 257 257 257 257 257 257 257 257 257 257 257 258 258 258 258 259 259 260 260 261 261 261 262 262 263 263 264 264 265 266 266 267 267 268 268 269 269 270 270 271 271 271 271 271 271 271 272 272 272 272 272 272 272 272 272 272
260 260 260 259 259 259 259 259 259 259 258 258 258 258 258 258 257 257 257 257 257 257 258 258 258 257 257 257 256 256 256 257 257 257 257 257 257 257 257 257 257 257 257 258 258 259 259 260 260 260 261 261 262 262 262 263 263 263 264 265 265 266 266 267 267 268 268 269 269 270 270 270 270 270 271 271 271 271 271 271 271 271 271 271 271
259 259 259 259 259 259 259 259 259 258 258 258 258 258 257 257 257 257 257 257 257 257 257 258 258 257 257 257 257 257 257 257 257 257 257 257 256 256 256 257 257 257 257 257 258 258 259 259 259 260 260 261 261 262 262 262 262 263 263 263 264 264 265 265 266 267 267 268 268 269 269 269 269 270 270 270 270 270 270 270 271 271 271 271 271
259 259 259 259 259 259 259 259 258 258 258 258 258 257 257 257 257 257 257 257 257 257 257 257 258 258 257 257 257 257 257 257 257 257 257 257 256 256 256 256 257 257 257 257 257 258 258 258 259 259 260 260 260 261 261 262 262 262 262 263 263 263 264 264 265 266 266 267 267 268 268 268 269 269 269 269 269 270 270 270 270 270 270 270 270
259 259 259 259 259 258 258 258 258 258 258 257 257 257 257 257 257 257 257 257 257 257 257 257 257 257 257 257 257 257 257 257 257 257 257 256 256 256 256 256 257 257 257 257 257 258 258 258 259 259 259 259 260 260 260 261 262 262 262 262 263 263 263 264 264 265 265 266 266 267 267 268 268 268 269 269 269 269 270 270 270 270 270 270 269
259 259 259 258 258 258 258 258 258 258 257 257 257 257 257 257 256 256 256 256 256 257 257 256 257 257 257 257 257 257 257 257 257 257 257 256 256 256 256 256 257 257 257 257 257 257 258 258 258 259 259 259 260 260 260 260 261 261 262 262 262 263 263 263 263 264 264 265 265 266 266 267 267 268 268 269 269 269 269 270 270 270 270 270 270
259 258 258 258 258 258 258 257 257 257 257 257 257 257 257 256 256 256 256 256 256 256 256 256 256 257 257 257 257 257 256 256 256 257 257 256 256 256 256 256 256 257 257 257 257 257 257 258 258 259 259 259 259 260 260 260 260 261 261 262 262 263 263 263 263 263 264 264 265 265 266 266 267 267 268 268 268 269 269 269 270 270 270 270 270
259 258 258 258 258 258 257 257 257 257 257 257 256 256 256 256 256 256 256 256 256 256 256 256 256 256 256 257 257 256 256 256 256 256 256 257 256 256 256 256 256 257 257 257 257 257 257 257 258 258 259 259 259 259 260 260 260 261 261 261 262 262 263 263 263 263 264 264 264 265 265 266 266 267 267 267 268 268 269 269 269 270 270 270 270
258 258 258 258 258 258 257 257 257 257 256 256 256 256 256 256 256 256 256 256 256 256 256 256 256 256 256 256 256 256 256 256 256 256 256 256 256 256 256 256 256 257 257 257 257 257 257 257 258 258 258 259 259 259 259 260 260 260 261 261 261 262 262 263 263 263 263 264 264 264 265 265 266 266 267 267 267 268 268 268 269 269 270 270 270
258 258 258 258 258 258 257 257 257 256 256 256 256 256 256 256 256 256 256 256 256 256 256 256 256 256 256 256 256 256 256 256 256 256 256 256 256 256 256 256 256 256 257 257 257 257 257 257 257 258 258 258 259 259 259 260 260 260 261 261 261 261 262 262 263 263 263 264 264 264 264 265 265 266 266 266 267 267 267 268 268 269 269 269 269
258 258 258 258 257 257 257 257 257 256 256 256 256 256 256 256 256 256 256 256 256 256 256 256 256 256 256 256 256 256 256 256 256 256 256 256 256 256 256 256 256 256 257 257 257 257 257 257 257 257 257 258 258 258 259 259 260 260 260 261 261 261 262 262 262 263 263 263 264 264 264 265 265 265 266 266 266 267 267 267 268 268 268 268 269
258 258 258 257 257 257 257 257 257 256 256 255 255 255 255 255 256 256 256 256 256 256 256 256 256 256 256 256 256 256 256 256 256 256 256 256 256 256 256 256 256 256 257 257 257 257 257 257 257 257 257 257 258 258 258 259 259 259 260 260 261 261 261 262 262 262 263 263 264 264 264 265 265 265 265 266 266 266 267 267 267 268 268 268 268
Wind_Speed
32 33 34 33 33 34 35 36 36 36 36 36 37 37 37 38 38 39 39 39 40 40 40 40 40 41 41 40 40 39 38 36 35 34 34 34 35 37 39 40 43 46 47 46 46 44 45 46 47 46 43 42 43 42 41 41 40 40 41 42 43 42 42 40 41 45 39 33 33 32 29 29 28 29 30 31 32 32 32 33 32 32 32 30 29
34 35 35 34 34 35 35 36 36 36 36 36 37 37 38 38 39 39 40 40 40 40 41 41 41 41 41 41 40 39 39 37 36 34 33 33 33 33 33 33 35 38 41 44 45 44 44 46 48 47 43 42 43 42 41 41 40 41 41 42 43 43 42 40 40 42 41 36 34 33 32 32 33 33 32 34 35 35 35 35 34 33 32 30 29
34 35 34 34 34 35 35 36 36 37 37 37 37 38 38 39 39 40 41 41 40 41 41 41 41 41 41 41 41 40 39 38 37 35 33 32 32 32 31 29 29 31 33 36 37 38 41 45 47 46 43 42 43 41 40 41 40 41 42 42 43 43 42 40 40 41 41 38 35 34 32 32 33 33 31 32 33 34 35 35 33 33 32 31 30
34 34 34 33 34 34 36 37 37 37 38 38 39 39 39 40 40 40 41 41 41 41 41 42 42 42 42 42 41 40 39 38 36 35 33 32 33 33 33 31 30 30 31 31 31 32 36 40 43 42 41 41 42 40 39 40 41 41 42 42 43 43 41 40 40 41 41 39 37 35 32 31 32 31 29 30 31 32 34 34 33 33 32 31 30
34 34 33 33 34 35 36 37 37 38 38 39 39 40 40 40 41 41 42 42 42 42 42 42 42 42 42 42 41 40 39 38 37 36 34 33 33 33 33 33 33 33 35 35 34 33 35 37 38 38 39 40 41 40 39 39 40 41 42 43 42 42 40 39 40 40 40 41 39 35 32 31 31 30 29 30 30 31 32 33 32 32 31 30 29
34 33 33 33 34 36 37 37 38 38 39 39 40 40 41 41 41 42 42 42 43 43 42 42 42 42 41 41 41 40 39 38 37 37 36 34 33 33 32 32 32 32 33 33 32 33 35 36 36 35 36 37 37 37 38 38 40 41 43 43 42 41 39 39 39 39 39 40 40 37 34 32 31 31 30 30 30 31 31 32 31 31 30 30 29
34 33 33 34 35 36 37 37 38 38 39 40 40 41 41 41 42 42 42 42 43 42 42 42 42 41 41 41 40 40 39 38 38 37 37 36 35 33 32 31 31 31 31 31 31 32 34 35 36 36 36 38 39 38 38 38 40 41 43 42 41 39 39 39 39 38 38 38 38 37 36 34 32 32 30 29 30 31 30 30 31 30 29 28 28
34 34 33 34 35 36 37 38 38 39 39 40 41 41 41 41 42 42 42 42 42 42 42 42 41 41 40 40 40 38 38 38 38 37 37 37 35 34 32 32 32 32 32 33 35 36 36 36 37 37 36 37 39 39 38 39 40 42 42 41 40 39 39 39 38 37 37 37 37 36 36 35 33 31 29 29 31 32 30 29 29 29 28 27 27
34 34 34 34 35 36 37 38 38 39 39 40 41 41 41 42 42 42 42 42 41 41 41 41 41 41 40 40 39 38 37 37 37 37 37 37 36 36 37 37 36 36 36 37 38 38 37 37 37 37 36 35 34 35 37 38 40 42 41 40 39 39 39 39 37 36 36 36 35 35 35 34 32 29 29 30 32 32 30 28 29 28 27 27 27
34 33 34 34 35 36 37 38 39 39 39 40 41 41 42 42 42 42 42 41 41 41 41 40 40 40 40 40 39 38 37 37 37 36 36 35 36 37 38 38 37 38 38 39 39 38 37 37 36 36 36 36 33 32 34 36 37 39 40 39 38 39 39 38 37 36 36 35 35 34 34 34 32 30 30 31 31 30 28 28 29 28 25 26 28
33 33 34 34 35 36 37 38 38 39 39 40 41 41 42 42 43 43 42 42 41 41 41 41 40 40 40 40 40 39 38 37 37 35 33 33 34 35 37 37 38 38 39 39 39 38 37 37 37 36 35 35 34 32 32 34 35 35 37 37 37 38 38 37 37 36 35 35 34 34 34 34 32 30 31 30 29 29 29 28 28 27 25 25 27
33 34 34 34 35 36 37 38 38 39 39 40 41 42 42 43 43 43 43 42 42 42 41 41 40 40 39 39 39 39 38 37 35 32 30 30 32 34 36 37 38 38 38 37 38 37 37 37 37 36 35 33 33 32 31 32 34 33 34 34 35 35 35 35 34 34 34 35 35 36 35 34 33 32 32 31 29 30 30 29 28 27 24 25 27
33 34 34 34 36 36 37 39 39 39 40 40 41 42 43 44 43 43 43 42 42 42 41 40 40 39 39 39 38 38 37 35 30 28 30 33 34 34 35 36 37 37 37 37 36 35 35 34 33 33 33 31 32 33 31 30 32 33 32 32 33 33 32 31 30 30 29 30 32 33 32 30 30 30 28 28 29 31 31 29 28 26 24 25 27
33 34 35 35 36 37 38 39 39 40 40 40 42 42 43 44 43 43 42 42 41 41 41 40 40 39 38 37 37 36 34 30 28 28 31 34 34 33 34 35 36 37 37 35 34 33 32 30 29 29 30 29 30 31 31 29 30 31 32 32 32 32 31 30 30 30 29 29 29 29 27 25 26 25 23 24 27 29 30 29 26 24 24 24 23
34 35 35 36 37 37 38 39 40 40 40 41 42 42 43 43 43 42 41 40 40 40 40 40 39 39 38 35 34 33 29 27 27 28 29 31 32 33 34 35 36 36 35 33 31 30 29 27 26 26 28 28 27 28 29 28 28 29 31 31 32 32 32 33 32 32 31 31 32 31 28 27 27 26 24 24 24 24 25 25 22 20 20 20 20
35 36 36 37 37 37 38 39 40 40 41 41 42 42 43 43 42 41 41 40 39 39 39 39 38 38 36 33 31 31 28 26 26 27 27 28 30 32 34 34 34 34 33 30 29 29 27 24 22 22 25 27 27 25 25 27 27 28 29 30 30 29 30 32 35 36 35 33 32 31 29 27 25 25 25 24 22 20 21 22 20 18 19 20 20
36 36 37 37 37 37 37 38 39 40 41 41 42 43 43 43 41 40 40 40 39 38 38 38 37 36 34 30 30 32 30 26 26 27 27 27 28 30 32 33 33 33 32 30 29 28 27 24 21 20 22 24 25 23 23 24 27 27 27 28 27 26 27 28 30 34 37 38 37 35 33 31 26 22 21 22 21 20 21 23 23 22 22 21 16
36 37 38 37 37 37 37 37 38 39 40 41 42 42 42 42 41 39 39 39 39 38 37 38 36 33 30 29 29 32 31 28 27 28 28 27 27 29 31 33 33 32 31 31 29 27 27 25 22 20 20 22 23 23 22 24 28 29 28 26 25 25 26 26 27 28 31 34 36 36 36 35 30 24 21 20 20 21 22 25 25 23 22 19 13
37 38 38 37 37 36 36 37 37 38 39 40 41 41 41 41 40 39 38 37 37 37 36 37 36 32 28 28 29 31 32 29 27 28 29 28 27 29 32 32 32 31 30 30 29 28 28 26 24 22 22 22 23 24 24 24 27 29 29 27 26 26 25 25 26 25 24 26 30 33 35 34 32 30 26 22 22 23 22 23 23 23 21 18 14
38 38 38 37 37 36 36 36 37 37 38 39 40 40 39 39 39 39 38 36 35 35 35 35 34 30 28 29 29 30 32 32 29 29 31 30 28 29 32 32 31 31 30 30 30 30 30 28 26 25 24 23 24 24 25 25 26 27 28 28 29 27 25 24 25 24 22 22 24 28 33 35 36 34 28 24 25 26 23 21 21 23 22 17 13
38 38 38 37 36 36 35 36 36 37 37 38 39 39 38 38 38 38 37 36 35 34 34 33 32 30 30 30 30 31 32 32 32 32 33 34 31 29 31 30 29 30 30 29 29 29 29 28 27 26 26 25 25 25 25 25 26 27 28 29 28 26 25 24 23 22 22 22 21 23 28 32 37 37 30 24 25 26 25 23 22 23 22 18 14
37 37 37 36 36 36 36 35 36 36 36 37 38 38 37 37 37 36 36 35 34 34 33 32 31 31 32 32 32 32 32 33 35 36 36 37 34 30 29 28 26 26 27 28 29 28 27 25 24 23 24 25 27 27 27 26 25 26 28 28 26 24 25 23 20 19 21 21 20 22 25 29 36 40 34 27 24 24 25 26 25 23 22 19 17
37 37 37 36 36 36 36 36 35 35 35 36 36 37 37 36 36 35 34 34 34 33 32 31 32 34 36 36 34 34 35 36 37 38 38 38 37 34 29 25 23 23 24 25 27 27 27 26 23 22 22 23 25 27 28 28 26 25 25 25 24 23 23 24 21 19 20 20 19 21 23 27 34 40 39 33 26 24 25 27 26 24 22 20 17
37 37 36 36 36 36 36 36 35 34 34 35 35 36 36 36 36 35 34 32 33 33 32 31 33 37 40 40 38 38 40 39 39 39 38 39 40 39 33 26 22 22 24 24 23 23 23 24 24 23 22 22 23 24 25 26 26 26 25 25 25 23 23 27 27 23 22 21 19 19 21 25 31 38 42 38 31 27 25 26 26 25 23 20 18
37 37 36 36 36 36 36 36 35 35 34 34 35 36 36 36 36 35 34 32 32 33 32 32 35 38 40 42 41 41 41 40 40 39 37 39 43 42 36 32 30 26 23 26 25 23 21 20 20 21 20 19 20 21 22 23 23 24 24 24 26 25 24 26 28 28 28 26 21 19 20 23 27 32 38 39 36 31 27 26 27 26 25 22 21
37 37 36 36 36 36 37 37 36 35 34 33 34 34 35 35 35 35 34 33 33 33 32 32 36 38 40 41 40 40 39 39 40 38 37 40 44 43 38 36 38 35 24 21 23 23 21 19 18 20 20 19 18 19 20 20 20 21 22 22 23 24 24 24 25 26 28 28 25 20 19 20 22 24 29 35 37 33 28 27 27 27 26 26 25
37 36 36 36 36 36 37 37 37 37 35 34 34 34 34 34 34 35 35 34 33 33 31 33 36 37 38 39 37 36 36 37 37 37 38 42 43 41 38 38 41 39 25 14 14 17 18 19 18 18 18 17 17 17 17 18 18 19 21 22 22 22 23 24 25 24 24 24 24 21 17 17 18 18 22 29 33 32 29 28 28 27 27 27 26
36 36 36 36 36 36 36 37 37 37 36 35 35 35 34 34 33 33 33 32 32 32 32 34 34 34 34 34 33 33 34 35 35 37 39 41 39 37 36 38 41 36 21 9 9 12 13 14 13 13 15 16 16 16 16 17 18 18 19 20 22 23 23 23 25 27 24 21 21 21 18 17 16 16 20 26 29 29 27 25 24 23 22 22 22
36 36 35 35 35 36 36 36 36 36 37 36 35 34 33 33 33 33 32 30 28 28 30 32 31 30 30 30 28 29 32 33 33 34 35 36 35 34 33 34 36 30 18 10 11 11 9 9 6 5 10 11 12 13 13 14 15 17 18 18 19 22 25 24 24 27 26 22 20 21 19 16 14 16 21 24 25 24 22 20 20 19 18 18 18
36 36 35 35 35 35 36 36 35 35 36 36 36 36 33 31 30 30 31 31 28 25 25 26 26 26 27 27 24 24 27 29 29 29 31 32 32 32 30 29 30 27 17 10 9 11 11 11 8 4 5 6 7 8 9 12 15 17 19 19 18 20 25 25 24 25 25 21 19 19 19 16 16 19 22 23 22 21 20 19 19 18 18 17 15
36 36 35 35 35 34 35 36 35 35 35 35 36 38 37 34 31 28 29 31 29 26 23 22 22 23 24 24 23 21 22 24 24 25 28 31 31 30 27 25 25 24 18 11 9 10 11 10 7 4 4 4 5 5 5 8 11 12 14 17 19 19 21 22 22 23 23 20 17 18 18 17 17 19 22 22 21 22 21 19 19 18 17 16 14
34 35 34 34 34 34 34 35 34 34 35 35 35 36 38 38 37 33 30 29 29 28 27 24 23 23 22 21 21 20 20 22 23 23 25 29 29 27 22 19 20 20 16 12 9 10 11 12 11 10 7 6 6 6 6 6 6 3 2 9 15 18 19 19 19 19 20 19 17 17 18 18 17 19 21 21 21 22 21 20 20 19 18 17 15
32 33 33 33 34 34 34 34 34 33 34 35 35 35 36 37 39 39 36 33 30 28 28 27 26 25 24 22 21 20 20 20 21 22 25 28 28 24 18 14 15 16 15 12 10 11 11 11 12 12 11 11 11 10 9 10 12 12 10 7 8 11 14 16 17 18 19 18 17 17 18 18 18 19 21 21 22 22 21 20 20 20 19 18 17
32 32 32 32 33 33 33 33 33 33 33 33 34 34 34 34 35 37 38 38 35 32 30 28 27 27 27 26 24 21 20 20 20 23 27 27 25 22 17 11 9 10 10 10 9 10 10 10 9 9 9 9 9 8 8 8 9 10 10 10 10 9 8 8 10 12 15 17 18 18 18 19 20 19 20 21 23 23 21 19 20 21 20 19 19
33 32 31 31 31 32 32 32 31 32 32 33 33 33 33 33 33 34 35 36 37 36 34 32 30 28 28 28 26 24 22 20 20 22 25 25 24 21 16 11 8 8 9 9 9 10 10 10 9 7 6 5 5 5 5 5 6 6 7 7 7 7 7 7 8 9 9 10 12 14 16 19 20 19 19 20 22 21 19 18 19 20 20 20 19
34 33 32 31 31 31 31 31 30 30 31 32 32 32 32 32 32 33 32 32 33 35 35 34 32 29 27 27 26 25 23 21 20 20 22 23 23 21 19 18 17 16 14 12 11 11 10 10 9 9 7 5 4 3 2 2 2 2 3 3 3 3 3 3 4 5 6 6 8 11 13 16 19 19 19 19 20 19 18 18 19 18 18 18 17
34 34 33 32 32 31 31 30 29 29 30 31 31 31 31 31 31 31 32 32 32 33 33 33 32 31 29 28 27 27 26 24 21 20 20 20 22 22 22 22 21 19 17 16 14 12 11 11 10 9 9 8 7 6 5 4 4 3 3 3 2 1 1 1 1 1 2 3 5 7 9 11 14 17 18 18 18 19 19 18 18 18 17 17 17
34 34 33 32 32 31 31 30 29 29 29 30 31 31 31 31 30 30 30 31 31 31 32 32 31 32 31 31 29 28 27 26 25 23 23 22 23 23 23 22 21 20 18 17 15 14 13 12 11 10 9 9 8 8 8 7 7 7 6 6 6 6 5 5 5 5 5 5 6 7 9 10 12 14 16 18 19 19 19 19 19 20 20 20 20
35 34 33 32 32 32 31 30 29 29 29 30 30 31 30 30 30 30 30 30 30 30 30 30 29 29 29 30 30 29 28 28 28 27 25 24 23 23 22 21 21 20 19 17 16 14 13 12 11 10 9 9 8 8 7 7 7 7 8 8 9 9 9 9 9 9 9 9 10 11 11 12 14 16 18 20 21 22 22 22 23 23 23 23 23
35 35 33 32 32 32 31 30 30 30 30 30 30 30 30 30 29 29 29 30 29 29 29 29 28 27 27 27 27 27 27 27 27 25 24 23 23 22 21 21 20 20 19 19 17 15 14 13 12 11 9 8 8 7 7 6 6 5 5 6 7 8 9 10 9 10 10 11 12 13 14 15 16 17 19 21 22 23 24 24 24 24 25 25 25
35 35 33 32 32 31 31 31 30 30 30 30 30 30 30 30 29 28 28 28 28 28 27 27 26 26 25 24 24 23 23 24 24 23 22 22 22 22 21 20 19 18 18 18 18 16 15 13 12 11 10 8 7 6 6 6 5 4 3 3 4 5 6 7 7 8 9 10 11 13 14 15 16 17 19 20 21 22 22 22 23 23 24 24 25
35 35 34 32 32 31 31 30 30 31 30 30 30 30 30 29 28 27 27 27 27 27 27 26 25 25 24 23 22 22 21 21 21 21 21 21 21 21 20 19 18 17 16 16 17 16 15 14 13 12 10 8 7 6 5 5 5 4 3 2 2 3 3 4 5 6 8 9 9 10 11 12 13 15 16 17 18 18 19 20 20 21 22 22 22
35 34 34 33 32 31 31 30 30 31 31 31 30 30 29 29 28 27 26 26 25 26 26 25 25 24 24 23 22 21 21 20 20 20 20 20 20 20 20 19 17 16 15 14 15 15 15 14 13 12 11 10 8 7 5 5 5 4 4 3 2 1 1 2 4 5 6 7 8 8 9 10 11 12 13 14 15 15 16 17 18 18 19 20 19
35 35 34 33 32 31 30 30 30 31 31 31 31 29 28 28 27 26 26 25 24 24 24 24 24 24 24 23 22 21 21 20 20 20 20 20 20 19 19 18 17 16 15 14 14 14 14 13 12 11 10 9 9 7 6 4 3 3 3 3 2 1 0 1 3 4 5 6 6 7 7 8 9 9 10 11 12 14 15 15 16 16 17 17 16
36 35 35 34 33 32 31 30 30 30 31 31 31 29 28 27 26 26 25 24 24 23 23 23 23 23 23 23 23 22 21 20 20 19 19 19 19 19 18 18 17 16 15 14 14 13 13 13 13 12 10 9 8 8 7 5 4 3 2 1 1 1 1 1 2 3 4 5 5 6 7 7 7 8 9 9 10 11 13 13 14 15 15 15 15
36 35 35 34 33 33 32 31 30 30 31 31 31 30 29 27 26 25 24 23 23 23 22 22 22 22 22 23 22 21 21 20 19 19 19 18 18 18 18 17 16 16 15 15 14 13 13 13 13 12 11 10 9 8 7 7 6 5 3 2 1 1 0 1 2 3 3 4 5 5 6 6 7 7 8 8 9 10 10 11 12 13 14 14 14
35 35 34 33 33 33 32 31 31 30 30 30 30 29 28 27 26 25 24 23 22 21 21 21 21 21 21 22 21 21 21 20 19 19 18 17 17 17 17 17 16 15 14 14 14 13 13 12 12 12 12 11 10 9 8 7 7 6 5 4 2 1 1 1 1 2 3 3 4 4 5 6 6 7 7 7 8 8 9 10 11 12 13 13 14
34 34 33 33 33 33 32 31 31 30 30 30 29 29 28 26 25 24 23 23 21 21 20 20 20 20 20 21 21 21 21 20 19 18 17 17 16 17 17 16 16 15 14 14 13 13 13 12 11 11 11 11 10 10 8 8 8 7 7 6 5 4 3 2 2 2 3 3 4 4 5 5 6 6 7 7 7 7 8 8 10 10 11 12 13
34 33 33 32 32 32 32 31 31 30 29 29 29 28 27 25 24 23 23 22 21 20 20 20 20 20 20 20 20 20 20 20 19 18 17 16 16 16 16 16 16 15 14 13 13 13 13 12 12 11 11 11 11 10 9 8 8 7 7 7 7 6 5 4 3 3 3 4 4 4 5 5 6 6 7 7 7 7 7 7 8 9 9 11 12
33 33 32 32 32 31 31 31 30 29 28 28 28 28 26 25 24 23 22 22 21 20 19 19 19 19 19 19 20 20 20 20 19 19 18 17 16 16 15 15 15 15 14 13 13 12 12 12 12 11 10 10 10 10 9 8 8 7 7 7 7 7 6 5 5 4 4 4 4 4 5 5 6 6 6 6 7 7 7 7 8 8 8 9 10
32 32 32 31 31 31 30 30 30 29 28 28 28 27 26 25 24 23 22 22 21 21 20 19 19 19 19 19 19 19 20 19 19 18 18 17 16 16 15 15 15 15 14 13 12 12 12 11 11 11 10 10 9 9 9 8 8 7 7 7 7 7 7 6 6 5 5 5 5 5 5 6 6 6 6 6 7 7 7 8 8 8 7 8 8
Wind_Direction
336 337 339 339 337 335 334 333 332 331 330 329 328 327 326 325 325 324 324 325 325 324 323 322 322 320 320 319 318 317 315 312 309 304 298 291 285 280 276 273 270 267 267 268 268 269 269 269 268 269 269 270 271 271 271 270 264 257 252 250 248 247 247 246 251 260 262 260 260 260 260 260 255 253 256 259 261 264 266 265 264 264 264 266 268
338 338 339 338 336 334 332 331 331 330 329 328 328 327 327 327 327 327 326 326 326 325 324 323 322 321 320 319 319 318 317 315 312 308 303 296 290 285 282 281 279 275 271 269 267 267 267 267 268 268 268 269 270 269 268 265 260 256 251 248 247 246 245 246 249 256 260 259 259 259 258 256 253 252 255 259 262 265 267 266 265 265 265 266 267
338 338 337 336 335 332 331 331 331 330 330 329 329 329 329 329 329 328 328 327 327 326 325 324 323 322 321 321 320 319 318 317 314 311 307 301 295 290 286 284 284 284 281 278 275 273 269 266 267 268 268 268 268 267 265 262 258 254 251 248 247 246 245 246 249 253 257 259 258 258 258 256 255 256 258 261 263 265 266 266 265 264 264 265 267
337 337 337 335 333 331 331 331 331 331 331 331 331 331 331 330 330 329 328 327 327 327 326 326 325 324 323 323 322 320 319 317 314 311 308 304 299 295 291 285 281 278 276 276 278 279 276 271 269 268 267 266 266 265 263 260 256 252 250 248 246 246 246 247 250 252 255 258 258 258 258 256 256 258 261 264 265 265 265 266 265 264 263 264 266
337 337 336 334 332 332 331 331 332 332 332 332 332 332 331 331 330 330 329 328 328 327 327 327 326 325 324 323 321 320 318 316 313 310 308 304 300 297 294 289 282 277 275 274 273 272 271 272 273 271 268 265 264 263 261 258 255 250 248 247 245 245 246 248 250 251 253 256 258 258 257 255 256 258 260 263 263 264 264 264 264 264 263 263 265
336 336 335 334 333 333 332 332 333 334 333 333 332 332 332 331 330 330 330 329 328 328 327 327 326 325 324 323 320 318 316 314 311 309 307 305 302 299 296 291 285 282 281 282 281 275 267 265 269 270 266 263 262 261 260 257 253 249 247 245 244 245 247 248 249 249 250 254 257 257 255 254 255 257 259 261 262 263 264 264 263 263 262 263 265
336 337 336 336 334 333 333 334 334 334 334 333 333 332 332 331 331 331 330 329 329 328 328 327 326 325 323 322 319 316 314 311 308 307 306 305 304 302 299 294 288 283 281 283 289 288 279 272 268 265 262 260 259 259 258 255 252 248 246 244 243 245 247 247 246 247 249 252 253 254 254 254 254 256 259 262 263 263 263 263 262 261 262 264 265
337 337 337 336 334 333 333 334 334 334 334 333 333 332 332 331 331 331 330 330 329 328 328 326 325 324 321 319 317 314 311 308 306 306 304 304 304 302 301 300 296 291 289 289 290 290 289 284 277 271 267 263 258 256 255 253 250 247 244 243 244 245 246 245 244 244 246 248 250 251 253 254 253 254 256 258 259 259 258 260 263 262 262 263 263
337 337 337 336 334 334 334 333 334 334 334 333 332 332 332 332 331 331 330 329 329 328 326 325 324 322 320 317 315 312 309 306 304 303 304 305 305 303 301 301 299 296 293 291 289 288 288 287 282 276 273 269 261 254 251 252 249 246 244 243 244 244 243 242 241 241 243 245 246 248 249 251 250 249 251 253 254 257 258 260 261 261 261 262 261
337 338 336 335 334 334 333 333 334 334 333 333 332 332 332 332 331 331 330 329 328 327 326 325 323 321 318 316 314 313 310 308 306 305 305 303 300 297 295 293 292 291 290 289 288 288 286 284 281 277 273 271 266 256 249 249 249 248 246 246 246 244 241 240 240 240 241 242 243 244 246 247 246 246 250 253 254 256 259 259 260 260 259 260 260
337 337 335 335 335 334 333 333 333 333 333 332 332 332 331 331 331 331 330 329 328 327 326 325 323 320 318 316 315 314 313 313 311 309 307 302 296 294 293 291 290 290 289 289 289 289 287 283 280 277 273 269 268 261 251 245 246 247 248 247 247 246 242 241 241 241 241 241 241 242 243 244 246 248 250 252 252 253 256 258 259 258 255 256 259
336 336 336 335 335 334 333 332 332 332 332 332 332 332 331 332 331 331 330 329 328 328 326 324 322 320 318 317 317 316 315 314 314 313 309 303 298 295 293 292 291 290 289 287 287 287 287 286 281 277 273 269 267 264 255 247 243 243 245 246 246 246 245 244 243 242 241 242 242 242 243 245 249 251 251 250 249 251 255 258 257 255 251 251 255
336 336 336 336 335 334 333 332 332 332 333 332 332 332 331 332 332 331 330 329 328 327 325 323 321 320 320 320 319 317 316 317 319 319 312 304 300 297 294 293 292 291 289 286 285 286 287 287 282 276 272 268 266 263 257 249 242 239 239 242 243 244 245 246 247 246 246 245 243 243 244 247 250 252 252 251 249 249 252 255 254 251 246 247 252
336 335 336 336 336 334 332 332 332 332 333 333 332 332 332 331 332 331 330 329 328 327 325 323 321 321 322 322 320 318 319 323 327 323 312 304 301 299 297 295 292 290 288 286 286 287 288 286 280 274 269 265 263 261 256 250 244 239 237 239 239 238 239 242 245 247 247 246 245 246 248 251 253 256 257 256 253 251 250 251 250 247 244 247 254
336 335 336 336 335 334 333 331 332 332 333 332 331 331 331 331 332 331 329 329 328 326 325 323 322 322 324 323 321 320 323 329 328 323 315 310 306 301 298 295 292 290 289 287 286 287 287 284 276 271 268 264 259 257 255 252 247 241 239 240 239 236 234 234 235 237 238 239 241 244 248 250 253 256 257 257 258 256 251 248 247 245 243 245 250
336 335 335 336 335 334 333 331 332 332 332 332 331 331 331 331 333 332 330 329 328 326 325 324 324 324 324 324 324 323 326 330 329 323 318 315 310 304 301 298 296 295 293 290 288 287 285 281 275 269 267 265 260 255 253 252 249 244 241 239 239 238 235 233 232 232 233 235 237 239 240 242 247 253 253 251 255 255 247 240 235 231 231 236 242
335 335 335 335 334 334 333 331 332 332 332 331 331 331 331 332 333 332 330 329 328 327 326 325 325 326 326 326 327 327 327 331 332 328 321 316 313 309 306 301 298 297 295 291 288 285 281 277 273 269 265 262 259 254 249 248 247 244 241 239 239 239 238 235 234 233 234 236 239 240 241 240 243 251 253 248 248 247 238 230 222 219 225 230 232
335 334 334 335 334 334 333 332 331 331 331 331 330 331 332 332 333 333 332 330 328 328 327 325 326 328 328 328 329 330 330 332 334 333 327 319 316 314 310 303 297 295 294 292 289 284 279 272 265 261 261 257 253 249 243 242 244 243 242 243 241 239 240 239 238 238 237 237 238 239 241 241 240 245 250 247 243 240 231 223 219 219 221 217 205
334 334 334 334 334 334 333 332 332 332 331 330 330 331 332 333 334 333 332 330 329 328 327 327 327 329 330 331 331 332 333 333 334 335 332 326 320 318 315 307 298 293 291 289 286 281 276 269 259 253 254 251 248 245 240 238 240 241 242 244 242 242 244 243 243 245 245 244 240 235 234 233 231 234 241 240 235 235 233 228 223 216 207 197 189
334 333 333 334 335 334 333 332 332 332 331 329 329 331 333 334 334 334 333 331 329 328 328 329 329 330 333 335 333 333 335 335 334 335 336 334 327 322 320 311 297 290 289 287 283 279 274 270 262 253 250 248 247 246 243 239 239 240 240 240 242 247 251 250 250 251 253 252 247 240 235 230 223 225 232 230 224 228 234 232 219 206 198 194 197
333 333 333 335 335 334 334 334 333 332 331 329 328 330 334 336 335 335 334 332 331 330 330 331 332 332 336 338 335 334 335 335 335 336 338 339 335 327 324 316 301 292 290 288 286 283 278 275 269 260 251 247 244 244 245 243 241 240 240 242 246 252 254 253 253 255 256 257 252 245 240 232 222 220 223 222 218 223 230 226 210 200 200 205 216
332 332 334 335 335 335 335 335 334 332 330 329 329 331 335 337 336 336 335 334 333 331 332 335 336 336 339 339 336 335 336 335 336 336 336 340 342 336 326 318 305 296 291 286 285 286 284 281 278 268 258 250 245 243 243 244 243 241 242 245 249 251 251 252 254 254 254 256 253 245 239 231 222 218 218 218 214 216 224 224 216 211 215 225 238
331 332 334 334 335 335 335 335 334 332 331 330 331 332 336 338 337 338 339 337 335 334 336 339 340 340 341 339 336 336 337 335 335 335 334 339 346 346 337 323 304 294 291 286 282 280 279 278 275 271 263 255 250 246 243 244 244 243 243 245 246 245 243 244 248 251 250 250 250 243 236 229 222 218 217 218 214 211 216 222 223 225 230 235 239
330 332 333 334 335 335 335 335 334 333 333 332 332 334 337 338 337 339 342 342 339 338 340 341 341 340 341 339 337 336 336 334 333 334 335 340 346 348 345 337 321 301 288 285 286 283 278 276 272 270 268 262 255 251 248 246 246 243 242 243 242 242 239 235 238 244 247 246 247 242 233 227 223 220 219 219 217 213 212 216 221 226 229 230 232
330 331 332 334 335 334 335 335 335 335 335 334 334 336 337 338 339 340 344 345 343 341 341 341 340 340 340 339 335 332 332 332 332 332 336 342 346 345 341 341 343 331 299 280 284 288 288 287 279 271 270 266 258 254 250 247 246 243 242 240 238 238 237 234 234 239 242 244 248 244 234 227 225 224 222 221 221 220 216 215 218 224 228 231 236
329 331 332 333 334 334 335 336 335 336 336 336 336 337 338 339 340 341 344 348 345 340 339 339 340 340 339 335 332 329 330 332 332 333 338 343 343 341 338 340 346 344 321 283 279 288 290 289 278 265 262 260 257 256 253 248 244 240 238 238 237 236 235 234 234 237 240 244 247 247 240 232 228 225 222 221 220 218 216 217 221 227 231 236 241
328 330 332 333 334 334 335 336 335 336 337 337 337 338 339 341 341 342 346 347 342 338 337 338 338 337 334 331 330 330 330 332 334 337 340 342 338 335 338 343 345 343 332 294 280 289 285 280 272 261 254 251 250 253 253 248 245 241 239 240 239 235 231 230 232 235 240 245 248 247 242 235 231 223 215 214 214 214 217 223 228 232 235 238 241
327 329 331 332 333 334 335 335 336 336 337 338 338 338 339 341 342 344 345 343 338 335 334 333 332 331 330 330 333 333 330 332 338 339 337 338 335 332 337 345 345 345 342 318 303 304 294 287 277 251 237 239 245 251 252 249 246 244 245 245 239 232 227 226 228 232 236 243 247 245 239 236 231 214 202 205 210 212 215 220 223 225 226 226 228
326 328 331 332 333 334 334 335 336 336 336 337 338 338 340 341 343 344 342 340 340 338 333 330 331 333 332 332 333 333 331 334 338 337 331 330 329 328 334 342 346 350 2 9 355 347 338 333 327 252 230 234 244 252 253 250 247 244 245 248 240 228 221 220 223 226 229 236 242 239 235 232 222 203 195 199 203 203 203 205 206 206 208 212 218
325 328 330 331 332 333 334 334 335 335 336 337 337 337 339 341 343 343 340 340 345 345 338 332 333 335 333 329 327 327 329 332 334 331 329 327 323 321 328 338 343 348 0 4 349 346 343 339 334 305 272 263 262 262 259 259 258 251 244 242 237 226 219 218 219 221 224 231 237 236 234 230 216 202 196 195 193 191 192 197 199 200 203 207 212
325 328 330 331 332 333 333 333 334 334 335 337 337 337 337 339 341 343 342 340 343 345 342 338 335 333 332 329 324 319 322 330 334 330 329 329 325 323 328 335 339 345 351 343 333 347 357 356 353 341 313 298 298 302 296 287 279 263 242 231 226 220 216 216 218 219 222 228 234 235 234 228 215 204 197 194 190 186 187 192 196 201 205 207 206
325 327 329 329 331 332 332 332 333 333 335 336 337 337 337 337 339 342 343 343 343 344 346 346 342 337 334 332 329 325 327 335 337 333 331 332 330 328 329 330 333 337 339 339 354 20 31 32 37 45 51 56 58 61 59 47 35 30 210 211 213 213 212 212 213 215 218 224 230 235 234 226 213 203 198 194 189 186 188 193 198 202 207 209 207
326 327 328 328 329 330 331 331 332 333 335 336 336 337 338 338 338 338 340 342 343 344 348 350 347 343 341 339 337 335 337 339 341 342 342 338 332 331 334 334 330 328 329 338 6 30 37 40 46 51 57 62 67 71 70 65 65 68 75 109 159 184 197 205 211 215 219 222 228 234 233 223 212 205 201 198 195 194 196 200 203 206 209 211 211
326 327 328 328 328 328 329 330 331 333 335 336 335 336 337 338 337 337 338 340 341 343 347 350 349 347 346 346 344 343 344 346 349 352 350 344 338 338 338 327 314 317 329 345 7 20 24 32 41 46 51 58 64 67 65 62 64 68 72 80 93 110 131 156 180 197 210 219 225 230 228 222 217 213 208 204 202 201 201 204 208 211 213 213 212
325 326 327 327 326 327 327 329 330 332 334 335 335 335 336 336 336 337 338 339 340 340 342 346 348 349 348 347 347 347 351 355 356 355 353 350 347 345 341 335 339 351 359 8 15 14 12 14 15 21 33 44 48 51 51 49 51 57 64 72 79 89 99 107 122 140 158 179 196 204 207 209 211 211 206 201 200 200 202 207 210 212 214 213 213
325 326 327 327 326 326 326 328 330 332 333 334 335 334 334 335 335 335 337 338 339 339 340 342 344 346 348 348 347 348 354 358 357 354 354 355 355 356 1 8 14 16 17 18 19 17 13 7 1 357 354 352 352 350 345 350 8 26 39 54 68 77 86 97 112 125 136 147 160 168 174 180 184 187 189 191 194 197 200 203 205 208 212 215 217
325 326 327 327 326 325 325 327 330 332 332 333 333 333 333 334 334 334 335 337 338 338 339 341 342 344 346 348 348 349 353 355 353 351 353 358 1 6 12 16 16 16 18 18 16 15 14 10 4 357 348 337 328 318 306 295 284 279 280 275 270 275 277 252 215 192 195 193 188 186 185 182 181 183 186 190 195 198 202 206 209 214 218 221 224
325 325 326 326 324 324 324 326 328 331 331 332 332 332 332 333 333 334 335 336 337 338 338 341 343 344 345 347 348 349 350 351 350 350 353 358 3 6 9 11 12 13 15 14 12 12 12 12 10 5 357 347 336 324 312 299 287 278 271 266 262 258 255 252 252 252 248 244 238 229 221 216 211 207 206 208 210 213 216 219 223 227 229 231 233
325 325 325 324 323 323 324 325 327 329 330 331 332 332 332 332 333 334 334 335 336 337 338 339 343 345 345 345 347 348 348 349 350 350 351 354 357 0 3 4 5 7 9 9 9 9 7 8 11 10 5 359 349 338 327 317 306 292 281 274 268 263 259 255 252 251 251 251 251 246 240 235 229 226 224 223 223 224 226 227 229 232 235 237 239
325 325 325 324 323 322 323 324 326 328 329 330 331 331 331 332 332 333 333 334 335 336 337 338 341 344 345 346 347 348 347 347 347 348 349 350 350 354 358 360 0 1 2 3 4 4 3 3 5 7 9 9 3 354 345 336 326 310 292 278 267 264 264 260 254 249 245 242 242 240 239 237 234 230 230 229 228 228 229 230 231 233 235 237 239
325 325 325 324 322 322 322 324 325 326 327 329 329 329 329 330 331 331 331 332 333 334 335 336 338 341 344 345 346 345 344 343 343 345 348 349 349 351 354 356 356 356 356 356 357 358 358 358 357 359 4 10 11 10 5 356 347 331 305 279 260 256 255 250 245 240 233 231 231 230 230 231 230 228 228 228 228 229 229 230 230 231 232 234 236
325 326 325 324 323 322 323 323 324 324 325 326 327 328 328 328 328 329 329 330 331 332 334 335 336 339 341 342 342 342 343 343 343 343 345 347 350 351 352 353 354 353 351 351 351 352 352 352 351 351 353 359 6 14 16 11 5 357 340 310 275 256 245 232 225 219 215 216 218 219 221 223 224 225 226 226 226 226 225 225 225 226 227 229 231
325 326 326 325 324 323 323 323 323 323 324 325 326 327 326 325 325 326 327 328 329 330 332 334 335 336 338 340 340 340 342 344 344 344 344 346 348 350 351 351 351 350 348 346 345 346 347 349 348 345 344 347 352 0 9 17 19 17 8 354 330 293 239 206 200 200 201 203 204 206 211 214 216 219 221 221 220 220 219 217 217 218 219 222 224
325 326 326 326 325 324 323 323 322 322 323 324 325 325 325 324 323 323 324 326 327 329 330 333 334 335 336 337 338 339 342 343 344 344 344 345 345 347 349 350 349 348 346 344 343 342 343 343 344 343 340 337 336 339 346 355 10 24 27 17 5 3 56 162 170 174 179 184 186 189 195 200 204 207 210 212 213 215 215 214 214 215 216 218 219
326 327 326 326 325 324 323 322 322 321 322 322 323 324 325 324 323 322 322 324 325 327 328 331 333 334 334 335 337 338 340 342 342 342 343 344 344 345 346 348 348 347 345 343 341 341 341 340 339 339 337 333 329 329 329 329 332 342 5 19 13 14 49 142 155 157 161 167 171 175 179 184 187 190 194 200 205 207 209 211 211 213 216 216 216
327 327 326 325 324 323 323 323 321 321 321 322 323 324 325 324 322 322 321 322 323 325 327 328 330 332 333 334 335 336 338 339 340 340 341 342 343 344 345 346 346 346 345 342 340 340 339 338 336 336 335 334 329 324 319 316 315 313 311 313 320 333 338 167 165 162 161 162 165 169 170 172 175 177 181 188 195 198 202 205 206 208 212 213 212
327 326 325 325 324 323 323 323 321 321 322 322 323 324 325 324 322 322 321 320 320 322 324 326 328 330 331 333 334 335 336 337 337 338 339 339 340 342 344 345 344 345 344 342 340 339 337 336 335 334 333 332 330 325 318 311 306 301 299 298 289 267 257 241 205 188 179 172 172 172 170 168 169 171 172 177 183 189 195 199 201 203 207 209 210
326 325 325 324 324 324 324 323 323 323 322 322 323 324 325 324 323 322 320 319 319 320 322 324 326 328 329 330 332 334 335 335 334 334 336 337 338 339 341 343 344 344 343 342 340 339 338 337 337 335 332 330 328 325 319 312 305 299 293 289 283 271 257 244 230 220 207 192 183 181 178 175 174 173 171 171 173 177 183 189 194 198 202 205 207
325 325 325 324 324 324 324 324 324 324 323 323 324 325 326 326 325 323 321 320 319 319 320 322 324 326 327 327 329 331 333 334 334 333 334 335 336 337 339 341 342 342 341 341 340 339 338 338 337 337 336 333 329 326 323 317 308 299 293 289 284 278 268 253 237 231 229 217 204 195 189 186 184 181 178 175 172 170 170 174 180 186 193 197 202
325 324 324 324 324 324 324 324 324 324 325 324 324 326 327 327 326 324 323 321 319 319 319 320 322 324 326 326 327 328 330 332 334 334 334 335 335 334 335 338 340 340 340 341 340 339 338 338 338 338 337 335 332 328 325 321 313 302 294 288 282 278 275 265 249 237 231 227 221 213 203 197 195 193 189 184 178 172 167 165 165 168 176 184 192
325 325 324 324 324 324 324 324 324 325 325 325 325 326 327 327 326 325 324 322 321 320 319 319 320 322 324 325 325 324 325 328 332 333 334 335 334 332 332 334 336 337 338 339 339 338 337 336 337 338 339 338 336 332 328 325 318 307 297 290 283 279 276 270 260 249 237 226 223 221 215 209 206 204 201 197 190 181 174 169 165 162 163 168 177